Zurück zum Katalog

FENGYUN 1C DEB

AktivPO
NORAD 30656·DEBRIS·🇨🇳 China

Gestartet May 10, 1999 von Taiyuan Satellite Launch Center

Loading…

Nächste Überflüge (nächste 24 Stunden)

TLE

AktuellSource: Space-Track

Epoche: Sep 14, 2026, 05:15 UTC

1 30656U 99025APN 26257.21911733  .00003833  00000-0  10120-2 0  9997
2 30656  99.0190  94.5372 0030725 349.4292  10.6250 14.49277469 10659

Verfolge FENGYUN 1C DEB in Echtzeit mit AllMySat

Download on the App Store